Simultaneous Nadir Overpasses (SNOs) Predictions

Prediction of SNOs between GOES-15 and METOP-A Satellite Orbit:

Table of predicted SNOs for the next 14.0 days since TLE Epoch: 3/10/2017
Index Date Time (GOES-15) GOES-15 Lat,Lon METOP-A Lat,Lon Distance(km) Time Diff (sec)
1 03/11/2017 18:13:36 0.03,-134.80 -0.86,-130.84 451.55 80
2 03/13/2017 06:29:56 -0.03,-134.74 -0.20,-135.43 79.69 80
3 03/14/2017 06:11:56 -0.03,-134.70 0.91,-130.44 485.05 80
4 03/15/2017 18:28:08 0.03,-134.64 0.11,-135.00 41.15 80
5 03/18/2017 06:26:29 -0.03,-134.52 -0.05,-134.60 9.30 80
6 03/20/2017 18:27:20 0.03,-134.40 -0.04,-134.16 27.41 80
7 03/23/2017 06:25:41 -0.03,-134.26 0.10,-133.76 57.15 80




NCC Satellite Simultaneous Nadir Overpasses (SNOs) Prediction Service
